Tracking 29892 objects as of 21-Nov-2024
HD Live streaming from Space Station
objects crossing your sky now

STARLINK-3091

Track STARLINK-3091 now!
10-day predictions
STARLINK-3091 is classified as:


NORAD ID: 49172
Int'l Code: 2021-082AU
Perigee: 576.9 km
Apogee: 581.4 km
Inclination: 70.0 °
Period: 96.1 minutes
Semi major axis: 6950 km
RCS: Unknown
Launch date: September 14, 2021
Source: United States (US)
Launch site: AIR FORCE WESTERN TEST RANGE (AFWTR)
Your satellite tracking list
Your tracking list is empty




NASA's NSSDC Master Catalog

Two Line Element Set (TLE):
1 49172U 21082AU  24326.13936418 -.00000336  00000-0 -20393-4 0  9993
2 49172  70.0007  28.4376 0003252 274.3865  85.6923 14.98338629175533
Source of the keplerian elements: AFSPC